NOAA 16 DEB, 41201

Orbit data source: Space-Track

NOAA 16 DEB, 41201 is space debris in SSO originally from a launch on Thu, 21 Sep 2000 UTC launched from the Air Force Western Test Range (AFWTR). Debris objects in space refer to the collection of defunct objects orbiting the Earth. Examples of debris include non-operational satellites, rocket bodies, and fragments generated from explosions, collisions, or faulty payload assembly.

Loading next visibility...
Identifier
41201, 2000-055DE
Orbit
SSO
Country
Flag of USUS
Related business
Manufacturer
Unknown
Mission
Spacecraft
Bus & Motor
Unknown
Mass
Unknown
Launch date (UTC)
2000-09-21 (25 years ago)
Launch vehicle
Unknown
Launch site
Air Force Western Test Range (AFWTR)
Object type
Payload
Rocket body
Debris
Shape & HBR
Unknown shape, 0.1 m
Radar Cross Section
Small (<0.1 m²)

Expand to show TLE details & history
Last TLE update: 2 days ago

TLE from 2 days ago
0 NOAA 16 DEB
1 41201U 00055DE  26032.95475608  .00002320  00000-0  12622-2 0  9997
2 41201  98.7688  73.1128 0040112 351.8644   8.1873 14.12812274520924
Epoch: 2026-02-01T22:54Z
TLE epoch observation values (Epoch: 2026-02-01T22:54:50.925Z)
Latitude
-0.00004°
Longitude
-42.75636°
Altitude
823.967 km
Speed
7.456 km/s
True Right ascension
04h 52m 27s
True Declination
0° 00' 00"
Sunlit
Object was in daylight at epoch
Visualization orbit readout
Latitude
Unknown
Longitude
Unknown
Altitude
Unknown
Speed
Unknown
Apparent Right ascension
Unknown
Apparent Declination
Unknown
Sunlit
N/A
Visualization observer readout
Local Sidereal Time
13:50:20
Azimuth
Unknown
Elevation
Unknown
Doppler factor
Unknown
Orbital elements
Apogee altitude
875.916 km
Perigee altitude
817.954 km
Semi-major axis
7,225.072 km
Eccentricity
0.00401
Inclination
98.7688°
RAAN
73.1128°
Arg. of periapsis
351.8644°
True anomaly
8.25308°
Mean anomaly
8.1873°
Eccentric anomaly
8.22016°
Mean motion
3.53411 °/min
Orbital period
101.86 mins
BSTAR
0.0012622
Loading maneuver chart data...
Computing Atmospheric mass density...
Loading historical data...
Loading historical data...
Loading historical data...
Loading historical data...
Loading historical data...
Loading historical data...
Loading historical data...

Documentation

Showing up to 5 results
|